Location: Chiroubles
(46.1812°N, 4.6660°E)
Time: 06:48:38
(UTC+00:00)

Transit 4A - Pass Details

Date: 05 December 2020
Orbit: 864 x 980 km, 66.8° (Epoch: 25 January)

Event Time Altitude Azimuth Distance (km) Brightness Sun altitude
Rises 06:58:53 0° 227° (SW) 3,632 10.8 -2.2°
Reaches altitude 10° 07:01:28 10° 231° (SW) 2,702 10.1 -1.8°
Maximum altitude 07:07:41 56° 309° (NW) 1,156 8.2 -0.9°
Drops below altitude 10° 07:14:00 10° 27° (NNE) 2,741 10.3 0.0°
Sets 07:16:39 0° 32° (NNE) 3,690 11.0 0.4°
